When you browse on this site, cookies collect data to enhance your experience and personalize the content and advertising you see.
Visit our Privacy Policy to learn more. By continuing to use the site, you agree to this use of cookies and data.
  • în România
  • Lista ţărilor
  • Pe 7 zile
  • Temperatura apei
  • Meteo pe hartă
  • Widget-uri
  • user-avatar
    Intrare

    Meteo pe oră la Bracknell

    Astăzi, 31 Mai, Duminică

    Timp Temperatura Precipitaţii Vânt Presiune Umiditate
    00:00 +11°C° 0 mm 4 m/s 760 mmHg 82%
    01:00 +11°C° 0 mm 3 m/s 760 mmHg 84%
    02:00 +11°C° 0 mm 3 m/s 759 mmHg 85%
    03:00 +11°C° 0 mm 3 m/s 759 mmHg 87%
    04:00 +12°C° 0 mm 3 m/s 760 mmHg 83%
    05:00 +13°C° 0 mm 4 m/s 760 mmHg 80%
    06:00 +14°C° 0 mm 4 m/s 760 mmHg 76%
    07:00 +15°C° 0 mm 4 m/s 760 mmHg 70%
    08:00 +17°C° 0 mm 5 m/s 760 mmHg 63%
    09:00 +20°C° 0 mm 6 m/s 760 mmHg 57%
    10:00 +20°C° 0 mm 6 m/s 760 mmHg 55%
    11:00 +21°C° 0 mm 6 m/s 760 mmHg 52%
    12:00 +22°C° 0 mm 5 m/s 760 mmHg 50%
    13:00 +21°C° 0 mm 6 m/s 760 mmHg 49%
    14:00 +21°C° 0 mm 6 m/s 760 mmHg 49%
    15:00 +21°C° 0 mm 6 m/s 760 mmHg 49%
    16:00 +20°C° 0 mm 6 m/s 760 mmHg 53%
    17:00 +19°C° 0 mm 5 m/s 760 mmHg 57%
    18:00 +17°C° 0 mm 5 m/s 760 mmHg 61%
    19:00 +17°C° 0 mm 4 m/s 760 mmHg 64%
    20:00 +14°C° 0 mm 4 m/s 760 mmHg 67%
    21:00 +12°C° 0 mm 4 m/s 760 mmHg 71%
    22:00 +12°C° 0 mm 4 m/s 760 mmHg 75%
    23:00 +11°C° 0 mm 4 m/s 760 mmHg 78%

    Mâine, 1 Iunie, Luni

    Timp Temperatura Precipitaţii Vânt Presiune Umiditate
    00:00 +10°C° 0 mm 4 m/s 760 mmHg 82%
    01:00 +10°C° 0 mm 4 m/s 760 mmHg 85%
    02:00 +10°C° 0 mm 3 m/s 760 mmHg 88%
    03:00 +9°C° 0 mm 3 m/s 760 mmHg 90%
    04:00 +10°C° 0 mm 4 m/s 760 mmHg 89%
    05:00 +11°C° 0 mm 4 m/s 760 mmHg 87%
    06:00 +12°C° 0 mm 4 m/s 760 mmHg 85%
    07:00 +14°C° 0 mm 5 m/s 760 mmHg 79%
    08:00 +16°C° 0 mm 5 m/s 760 mmHg 72%
    09:00 +19°C° 0 mm 5 m/s 760 mmHg 66%
    10:00 +20°C° 0 mm 5 m/s 760 mmHg 63%
    11:00 +20°C° 0 mm 5 m/s 760 mmHg 60%
    12:00 +21°C° 0 mm 5 m/s 760 mmHg 57%
    13:00 +21°C° 0 mm 5 m/s 759 mmHg 57%
    14:00 +22°C° 0 mm 5 m/s 759 mmHg 56%
    15:00 +22°C° 0 mm 5 m/s 759 mmHg 55%
    16:00 +21°C° 0 mm 5 m/s 759 mmHg 58%
    17:00 +20°C° 0 mm 4 m/s 759 mmHg 62%
    18:00 +20°C° 0 mm 4 m/s 758 mmHg 65%
    19:00 +18°C° 0 mm 4 m/s 759 mmHg 70%
    20:00 +16°C° 0 mm 3 m/s 759 mmHg 75%
    21:00 +13°C° 0 mm 3 m/s 759 mmHg 80%
    22:00 +12°C° 0 mm 3 m/s 759 mmHg 82%
    23:00 +11°C° 0 mm 3 m/s 759 mmHg 84%

    Poimâine, 2 Iunie, Marţi

    Timp Temperatura Precipitaţii Vânt Presiune Umiditate
    00:00 +10°C° 0 mm 3 m/s 758 mmHg 86%
    01:00 +10°C° 0 mm 3 m/s 758 mmHg 88%
    02:00 +10°C° 0 mm 3 m/s 758 mmHg 90%
    03:00 +9°C° 0 mm 3 m/s 757 mmHg 92%
    04:00 +10°C° 0 mm 3 m/s 757 mmHg 90%
    05:00 +11°C° 0 mm 3 m/s 757 mmHg 89%
    06:00 +12°C° 0 mm 4 m/s 757 mmHg 87%
    07:00 +14°C° 0 mm 4 m/s 757 mmHg 81%
    08:00 +17°C° 0 mm 4 m/s 757 mmHg 75%
    09:00 +20°C° 0 mm 3 m/s 757 mmHg 69%
    10:00 +21°C° 0 mm 3 m/s 756 mmHg 64%
    11:00 +22°C° 0 mm 3 m/s 756 mmHg 59%
    12:00 +25°C° 0 mm 3 m/s 756 mmHg 55%
    13:00 +24°C° 0.2 mm 3 m/s 755 mmHg 58%
    14:00 +24°C° 0.2 mm 3 m/s 754 mmHg 60%
    15:00 +24°C° 0.2 mm 3 m/s 754 mmHg 63%
    16:00 +22°C° 0.5 mm 3 m/s 753 mmHg 67%
    17:00 +21°C° 0.5 mm 3 m/s 753 mmHg 72%
    18:00 +21°C° 0.5 mm 3 m/s 752 mmHg 77%
    19:00 +19°C° 0.2 mm 3 m/s 752 mmHg 80%
    20:00 +18°C° 0.2 mm 2 m/s 752 mmHg 83%
    21:00 +17°C° 0.2 mm 2 m/s 752 mmHg 86%
    22:00 +16°C° 0.3 mm 2 m/s 752 mmHg 86%
    23:00 +16°C° 0.3 mm 2 m/s 751 mmHg 87%

    3 Iunie, Miercuri

    Timp Temperatura Precipitaţii Vânt Presiune Umiditate
    00:00 +15°C° 0.3 mm 2 m/s 751 mmHg 87%
    01:00 +14°C° 0.3 mm 2 m/s 750 mmHg 89%
    02:00 +14°C° 0.3 mm 2 m/s 750 mmHg 90%
    03:00 +13°C° 0.3 mm 2 m/s 749 mmHg 92%
    04:00 +13°C° 0 mm 3 m/s 749 mmHg 91%
    05:00 +13°C° 0 mm 3 m/s 749 mmHg 89%
    06:00 +13°C° 0 mm 4 m/s 749 mmHg 88%
    07:00 +14°C° 0 mm 4 m/s 749 mmHg 84%
    08:00 +15°C° 0 mm 5 m/s 749 mmHg 81%
    09:00 +16°C° 0 mm 6 m/s 749 mmHg 77%
    10:00 +17°C° 0 mm 6 m/s 749 mmHg 74%
    11:00 +19°C° 0 mm 6 m/s 749 mmHg 72%
    12:00 +20°C° 0 mm 6 m/s 749 mmHg 69%
    13:00 +20°C° 0.3 mm 6 m/s 749 mmHg 70%
    14:00 +20°C° 0.3 mm 7 m/s 748 mmHg 71%
    15:00 +20°C° 0.3 mm 7 m/s 748 mmHg 73%
    16:00 +20°C° 0.2 mm 7 m/s 748 mmHg 74%
    17:00 +18°C° 0.2 mm 7 m/s 748 mmHg 76%
    18:00 +18°C° 0.2 mm 7 m/s 748 mmHg 78%
    19:00 +17°C° 0 mm 7 m/s 748 mmHg 80%
    20:00 +15°C° 0 mm 7 m/s 749 mmHg 83%
    21:00 +14°C° 0 mm 7 m/s 749 mmHg 86%
    22:00 +14°C° 0 mm 7 m/s 749 mmHg 85%
    23:00 +12°C° 0 mm 7 m/s 749 mmHg 84%

    4 Iunie, Joi

    Timp Temperatura Precipitaţii Vânt Presiune Umiditate
    00:00 +12°C° 0 mm 7 m/s 749 mmHg 84%
    01:00 +12°C° 0 mm 7 m/s 749 mmHg 84%
    02:00 +12°C° 0 mm 8 m/s 749 mmHg 84%
    03:00 +11°C° 0 mm 9 m/s 749 mmHg 84%
    04:00 +11°C° 0 mm 8 m/s 749 mmHg 84%
    05:00 +12°C° 0 mm 8 m/s 749 mmHg 84%
    06:00 +12°C° 0 mm 8 m/s 749 mmHg 84%
    07:00 +12°C° 0 mm 7 m/s 749 mmHg 83%
    08:00 +14°C° 0 mm 7 m/s 749 mmHg 81%
    09:00 +14°C° 0 mm 7 m/s 749 mmHg 80%
    10:00 +15°C° 0 mm 6 m/s 750 mmHg 79%
    11:00 +15°C° 0 mm 6 m/s 750 mmHg 77%
    12:00 +16°C° 0 mm 6 m/s 750 mmHg 76%
    13:00 +17°C° 0 mm 6 m/s 750 mmHg 75%
    14:00 +17°C° 0 mm 6 m/s 750 mmHg 74%
    15:00 +19°C° 0 mm 5 m/s 750 mmHg 73%
    16:00 +19°C° 0 mm 5 m/s 749 mmHg 74%
    17:00 +17°C° 0 mm 5 m/s 749 mmHg 75%
    18:00 +17°C° 0 mm 5 m/s 749 mmHg 76%
    19:00 +17°C° 0 mm 4 m/s 749 mmHg 82%
    20:00 +14°C° 0 mm 4 m/s 749 mmHg 87%
    21:00 +13°C° 0 mm 3 m/s 750 mmHg 92%
    22:00 +12°C° 0 mm 3 m/s 750 mmHg 93%
    23:00 +11°C° 0 mm 3 m/s 750 mmHg 93%

    5 Iunie, Vineri

    Timp Temperatura Precipitaţii Vânt Presiune Umiditate
    00:00 +10°C° 0 mm 2 m/s 750 mmHg 93%
    01:00 +10°C° 0 mm 2 m/s 749 mmHg 93%
    02:00 +9°C° 0 mm 2 m/s 749 mmHg 92%
    03:00 +9°C° 0 mm 2 m/s 749 mmHg 92%
    04:00 +10°C° 0 mm 2 m/s 749 mmHg 89%
    05:00 +12°C° 0 mm 2 m/s 748 mmHg 85%
    06:00 +12°C° 0 mm 3 m/s 748 mmHg 82%
    07:00 +13°C° 0 mm 3 m/s 748 mmHg 75%
    08:00 +15°C° 0 mm 4 m/s 748 mmHg 67%
    09:00 +18°C° 0 mm 4 m/s 748 mmHg 60%
    10:00 +19°C° 0 mm 4 m/s 748 mmHg 55%
    11:00 +20°C° 0 mm 4 m/s 748 mmHg 51%
    12:00 +21°C° 0 mm 4 m/s 748 mmHg 47%
    13:00 +21°C° 0 mm 4 m/s 748 mmHg 49%
    14:00 +22°C° 0 mm 5 m/s 748 mmHg 51%
    15:00 +22°C° 0 mm 5 m/s 748 mmHg 53%
    16:00 +20°C° 0 mm 6 m/s 748 mmHg 59%
    17:00 +17°C° 0 mm 7 m/s 748 mmHg 66%
    18:00 +15°C° 0 mm 8 m/s 748 mmHg 72%
    19:00 +14°C° 0 mm 7 m/s 748 mmHg 72%
    20:00 +11°C° 0 mm 7 m/s 749 mmHg 71%
    21:00 +10°C° 0 mm 6 m/s 750 mmHg 70%
    22:00 +9°C° 0 mm 6 m/s 750 mmHg 71%
    23:00 +8°C° 0 mm 6 m/s 750 mmHg 73%
    Arată mai mult